伽利略0214星导航星座 (GSAT0214 (GALILEO 18))

导读 | 星芒AI

GSAT0214,也称为GALILEO 18,是欧洲伽利略卫星导航系统的一部分。该卫星由空中客车防务与航天公司制造,于2021年发射,旨在提供高精度的全球定位、导航和授时服务。作为伽利略系统中的一个中轨道卫星,GALILEO 18运行在约23,222公里高的轨道上,与其他卫星协同工作,增强系统的可靠性和覆盖范围。该卫星采用最新的导航技术,支持民用和专业用户,广泛应用于交通、通信、农业和应急响应等领域。

基本信息
目录编号:
41862
目录名称:
GALILEO 18 (26E)
国际标识:
2016-069D
轨道中心:
EARTH
卫星名称:
伽利略0214星
卫星全名:
伽利略0214星导航星座 (GSAT0214 (GALILEO 18))
卫星状态:
在轨 (已飞行3257 天)
发射日期:
2016-11-17 UTC
国别 :
(ESA)
星等 :
--
轨道信息
数据来源 国际轨道数据
星历时间: 2025-10-17T00:20:19+0800
1天前
查看轨道信息
半长轴: 29600.286km
偏心率: 0.0000771
轨道倾角: 55.348°
近地点辐角 335.336°
升交点赤经 107.826°
平近点角 24.709°
近地点: 23219.868km
远地点: 23224.434km
周期: 844.702分钟
每日圈数: 1.704743
详细信息
平衡模式:
三轴稳定
覆盖范围:
全球
运营商:
欧盟空间计划局
运营商所在国:
法国大都会
使用方式:
暂无
卫星简介
伽利略定位系统(Galileo)是一个全球导航卫星系统,于2016年投入使用由欧盟通过ESA创建,由欧盟空间计划局(EUSPA)运营。该系统有两个地面操控站,并且在高纬度地区提供比其他系统更好的定位服务。该卫星仍在工作。
2D轨道图
3D轨道图
轨道高度分析图
轨道倾角分析图
轨道综合分析图
查看轨道综合分析图